Flag for U.S.A. Weather past 2 weeks in Butte, Montana, U.S.A.

Now
81 °F

Sunny.


Feels Like: 79 °F
Forecast: 48 / 80 °F
Wind: No wind

Location: Mooney Airport

Current Time: Jul 30, 2015 at 7:42:02 PM

Latest Report: Jul 30, 2015 at 6:53 PM


Visibility: 10 mi

Pressure: 30.16 "Hg (24.90 "Hg at 1685m altitude)

Humidity: 16%

Dew point: 31 °F

Location of ButteLocation

Historic Weather in Butte — Graph

°F

Butte temperature yesterday

Maximum temperature yesterday: 75 °F (at 4:53 PM)
Minimum temperature yesterday: 37 °F (at 5:53 AM)
Average temperature yesterday: 57 °F

Past Weeks' High & Low Weather Summary

 TemperatureHumidityPressure
High83 °F (Jul 30, 4:53 PM)97% (Jul 24, 3:53 AM)30.32 "Hg (Jul 24, 3:53 AM)
Low37 °F (Jul 29, 5:53 AM)15% (Jul 30, 4:53 PM)29.73 "Hg (Jul 21, 7:53 PM)
Average60 °F53%29.99 "Hg
* Reported Jul 15 5:53 PM — Jul 30 5:53 PM, Butte, Weather by CustomWeather, © 2015

Note: Actual official high and low records may vary slightly from our data, if they occured in-between our weather recording intervals... More about our weather records

Advertising

Butte weather history for previous 24 hours

 ConditionsComfort  
Time TempWeatherWind HumidityBarometerVisibility
5:53 PM
Thu, Jul 30
82 °FSunny.No wind16%30.17 "Hg10 mi
4:53 PM83 °FSunny.5 mph15%30.18 "Hg10 mi
3:53 PM80 °FSunny.5 mph17%30.20 "Hg10 mi
2:53 PM79 °FSunny.3 mph20%30.22 "Hg10 mi
1:53 PM79 °FSunny.7 mph21%30.22 "Hg10 mi
12:53 PM77 °FSunny.5 mph23%30.24 "Hg10 mi
11:53 AM74 °FSunny.6 mph25%30.25 "Hg10 mi
10:53 AM70 °FSunny.6 mph32%30.26 "Hg10 mi
9:53 AM62 °FSunny.No wind41%30.29 "Hg10 mi
8:53 AM55 °FSunny.No wind53%30.29 "Hg10 mi
7:53 AM47 °FSunny.3 mph74%30.29 "Hg10 mi
6:53 AM43 °FClear.No wind79%30.29 "Hg10 mi
5:53 AM42 °FClear.No wind82%30.29 "Hg10 mi
4:53 AM43 °FClear.5 mph82%30.27 "Hg10 mi
3:53 AM46 °FClear.3 mph73%30.26 "Hg10 mi
2:53 AM46 °FClear.5 mph77%30.26 "Hg10 mi
1:53 AM48 °FClear.6 mph74%30.25 "Hg10 mi
12:53 AM50 °FClear.6 mph68%30.25 "Hg10 mi
11:53 PM
Wed, Jul 29
54 °FClear.8 mph59%30.24 "Hg10 mi
10:53 PM55 °FClear.5 mph62%30.24 "Hg10 mi
9:53 PM59 °FSunny.6 mph56%30.22 "Hg10 mi
8:53 PM69 °FSunny.6 mph30%30.19 "Hg10 mi
7:53 PM74 °FSunny.7 mph23%30.19 "Hg10 mi
Weather by CustomWeather, © 2015

See weather overviewHow to use our weather pages